Regional Weather Roundup
Issued by NWS

Home | Current Version | Previous Version | Text Only | Print | Product List | Glossary Off
Versions: 1 2 3 4 5 6 7 8 9 10 11 12 13 14 15 16 17 18 19 20 21 22 23 24 25 26 27 28 29 30 31 32 33 34 35 36 37 38 39 40 41 42 43 44 45 46 47 48 49 50

000
ASUS43 KMKX 241500
RWRWI

WISCONSIN REGIONAL WEATHER ROUNDUP
NATIONAL WEATHER SERVICE MILWAUKEE/SULLIVAN WI
900 AM CST FRI FEB 24 2017

NOTE: "FAIR" INDICATES FEW OR NO CLOUDS BELOW 12,000 FEET WITH NO
SIGNIFICANT WEATHER AND/OR OBSTRUCTIONS TO VISIBILITY.

WIZ001-002-006>008-014>016-023>028-241600-
NORTHWEST WISCONSIN

CITY           SKY/WX    TMP DP  RH WIND       PRES   REMARKS
SUPERIOR ARPT  CLOUDY    21  13  72 NE13      29.96S WCI   8
ASHLAND        LGT SNOW  22  16  78 NE20G26   29.92F WCI   7
HAYWARD        LGT SNOW  23  16  74 NE21G28   29.84S WCI   8
SIREN          CLOUDY    24  18  75 NE18G26   29.87R WCI  11
CUMBERLAND     CLOUDY    25  19  80 N14G21    29.81R WCI  13
RICE LAKE      LGT SNOW  25  23  89 N16       29.82R WCI  13
CHETEK         LGT SNOW  26  23  86 N12       29.79R WCI  16
LADYSMITH      LGT SNOW  26  22  84 NE16      29.78S WCI  13
EAU CLAIRE     MIX PCPN  28  24  85 N10       29.76R FOG     WCI  19
MENOMONIE      LGT SNOW  28  25  87 N10       29.78S WCI  19
NEW RICHMOND   CLOUDY    27  19  73 NE16G22   29.82R WCI  14
OSCEOLA        CLOUDY    26  19  77 N12G18    29.87S WCI  15
$$

WIZ003>005-009-010-017-018-241600-
NORTH CENTRAL WISCONSIN

CITY           SKY/WX    TMP DP  RH WIND       PRES   REMARKS
MANITOWISH WTR LGT SNOW  19  19  96 NE8G17    29.80R WCI   9
ARBOR VITAE    LGT SNOW  22  18  87 NE12G21     N/A  WCI  10
WOODRUFF       LGT SNOW  22  18  87 NE12G21     N/A  WCI  10
RHINELANDER    MIX PCPN  23  18  81 NE9G21    29.75S WCI  13
EAGLE RIVER    LGT SNOW  21  18  87 NE14      29.77F WCI   8
LAND O LAKES   LGT SNOW  21  18  88 NE12      29.80F WCI   9
PHILLIPS       LGT SNOW  22  19  87 NE15G24   29.77S WCI   9
TOMAHAWK       MIX PCPN  23  19  85 NE7G17    29.76S WCI  15
MEDFORD        MIX PCPN  24  20  84 NE17G29   29.69F WCI  11
MERRILL        NOT AVBL
$$

WIZ029-030-035-036-043>047-241600-
CENTRAL WISCONSIN

CITY           SKY/WX    TMP DP  RH WIND       PRES   REMARKS
WAUSAU         LGT SNOW  26  21  81 NE14G25   29.67F WCI  14
MOSINEE        LGT SNOW  27  27 100 NE13G24   29.67F VSB 3/4 WCI  16
MARSHFIELD     CLOUDY    27  23  85 NE16G23   29.66F FOG     WCI  15
STEVENS POINT  MIX PCPN  26  25  93 NE21G30   29.68F WCI  12
WAUPACA        CLOUDY    31  27  86 N14G24    29.68F FOG     WCI  21
WAUTOMA        LGT SNOW  29  26  89 NE18G30   29.63F FOG     WCI  16
WISC RAPIDS    CLOUDY    29  27  92 NE13G20   29.66F WCI  19
CAMP DOUGLAS   NOT AVBL
$$

WIZ011>013-019>022-031-037>040-048>050-241600-
NORTHEAST WISCONSIN

CITY           SKY/WX    TMP DP  RH WIND       PRES   REMARKS
ANTIGO         CLOUDY    24  21  89 NE21      29.71F WCI   9
SHAWANO        CLOUDY    30  26  87 NE18G30   29.70F FOG     WCI  18
OCONTO         CLOUDY    28  26  90 NE10G21   29.74F WCI  19
STURGEON BAY   LGT SNOW  29  26  89 NE16G26   29.71F FOG     WCI  17
GREEN BAY      SNOW      29  28  96 NE33G40   29.68S VSB 1/2 WCI  13
MANITOWOC      NOT AVBL
APPLETON       DRIZZLE   28  27  93 NE21G29   29.62F WCI  15
CLINTONVILLE   MIX PCPN  30  27  86 NE21G28   29.69F WCI  17
OSHKOSH        LGT SNOW  30  28  92 NE21G33   29.62F FOG     WCI  17
$$

WIZ032>034-041-042-053>061-241600-
SOUTHWEST WISCONSIN

CITY           SKY/WX    TMP DP  RH WIND       PRES   REMARKS
LA CROSSE      LGT SNOW  32  28  85 N10       29.69R FOG     WCI  24
SPARTA         CLOUDY    29  27  92 NE9       29.69R WCI  21
VIROQUA        CLOUDY    29  27  92 NE18G26   29.61R WCI  17
BOSCOBEL       FRZ RAIN  32  28  85 NE13G21   29.59F FOG     WCI  22
PRAIRIE DU CHI MIX PCPN  31  30  97 N10       29.60S WCI  22
PLATTEVILLE    CLOUDY    32  32 100 NE12G18   29.53R WCI  23
$$

WIZ056-057-062-063-064-067-068-241600-
SOUTH CENTRAL WISCONSIN

CITY           SKY/WX    TMP DP  RH WIND       PRES   REMARKS
REEDSBURG      CLOUDY    29  28  98 NE14G21   29.61R FOG     WCI  18
BARABOO/DELLS  CLOUDY    29  28  94 NE14G21   29.58F FOG     WCI  18
LONE ROCK      CLOUDY    31  27  85 NE17G25   29.59S FOG     WCI  19
MINERAL POINT  CLOUDY    32  32 100 NE7       29.53R WCI  26
MADISON        CLOUDY    32  29  88 NE18G31   29.56S FOG     WCI  20
MIDDLETON      CLOUDY    33  33 100 NE12      29.56F WCI  24
WATERTOWN      CLOUDY    32  32 100 NE13G22   29.57R FOG     WCI  22
MONROE         CLOUDY    32  32 100 NE24      29.50S FOG     WCI  19
JANESVILLE     CLOUDY    36  36 100 NE13G22   29.51F FOG     WCI  27
$$

WIZ051-052-058>065-066-070>072-241600-
SOUTHEAST WISCONSIN

CITY           SKY/WX    TMP DP  RH WIND       PRES   REMARKS
MILWAUKEE      LGT RAIN  36  33  89 NE18G25   29.55S FOG     WCI  26
WAUKESHA       DRIZZLE   30  30 100 NE16G35   29.56F FOG     WCI  19
MILWAUKEE/TIMM DRIZZLE   34  30  86 N16G29    29.57S WCI  23
RACINE         LGT RAIN  36  34  92 NE21G28   29.54F FOG     WCI  25
KENOSHA        MIX PCPN  36  34  92 NE18G28   29.51F FOG     WCI  26
FOND DU LAC    FLURRIES  32  27  81 NE23G29   29.62F WCI  19
SHEBOYGAN      CLOUDY    32  31  96 NE24G41   29.61F FOG     WCI  19
WEST BEND      DRIZZLE   32  32 100 NE13      29.58F WCI  22
JUNEAU         MIX PCPN  31  30  95 N10       29.60R WCI  22
$$

LSZ147-162-241600-
LAKE SUPERIOR

STATION/POSITION TIME  TEMP    WIND        PRES    WAVE
                       AIR SEA DIR/SP/G            HT/PER
                 (UTC) (F)     (DEG/KT/KT) (MB)    (FT/S)
DEVILS ISLAND    1400   20      40/ 24/ 26 1016.3F
PORT WING        1440   23      40/ 20/ 26 1014.6S
SAXON HARBOR     1440   24      40/ 24/ 30 1013.2R
$$

LMZ867-665-643>646-241600-
LAKE MICHIGAN

STATION/POSITION TIME  TEMP    WIND        PRES    WAVE
                       AIR SEA DIR/SP/G            HT/PER
                 (UTC) (F)     (DEG/KT/KT) (MB)    (FT/S)
CHAMBERS ISLAND  1440   27      10/ 28/ 33 1006.8S
NORTHPORT PIER   1440   27      20/ 18/ 30 1008.1F
SISTER BAY       1405   28     360/ 18/ 27   N/A
KEWAUNEE LAKESHO 1430   31      50/ 26/ 36 1004.3F
SHEBOYGAN LAKESH 1400   33      30/ 33/ 36 1003.4F
PORT WASHINGTON  1430   33      30/ 17/ 26 1003.7R
MILWAUKEE LAKESH 1430   35      20/ 22/ 27   N/A
KENOSHA   LAKESH 1400   36      30/ 19/ 24 1000.3
$$

TC  - TEMPERATURE IN CELSIUS
VSB - VISIBILITY IN STATUTE MILES
WCI - WIND CHILL INDEX
HX  - HEAT INDEX





USA.gov is the U.S. government's official web portal to all federal, state and local government web resources and services.